Location: Taaricht
(32.5378°N, 5.4251°W)
Time: 19:45:50
(UTC+00:00)

CZ-2C R/B - Pass Details

Date: 09 April 2020
Orbit: 785 x 870 km, 98.3° (Epoch: 28 May)

Event Time Altitude Azimuth Distance (km) Brightness Sun altitude
Rises 21:01:36 0° 5° (N) 3,281 6.1 -27.2°
Reaches altitude 10° 21:03:58 10° 359° (N) 2,353 5.4 -27.7°
Maximum altitude 21:08:56 48° 287° (WNW) 1,035 3.4 -28.6°
Enters shadow 21:13:32 12° 215° (SW) 2,225 4.9 -29.4°
